Location: Bussy-Saint-Georges
(48.8410°N, 2.7017°E)
Time: 20:59:55
(UTC+00:00)

Lacrosse 4 Rocket - Pass Details

Date: 18 October 2021
Orbit: 537 x 619 km, 68.0° (Epoch: 07 December)

Event Time Altitude Azimuth Distance (km) Brightness Sun altitude
Rises 20:17:23 0° 319° (NW) 2,804 5.8 -33.6°
Reaches altitude 10° 20:19:45 10° 310° (NW) 1,914 4.8 -33.9°
Enters shadow 20:21:25 20° 295° (WNW) 1,372 3.9 -34.2°
